sat.trackr.live / text

‹ back to catalog

STARLINK-34389

NORAD 64351 · 2025-126H

PAYLOAD ACTIVE UNKNOWN

§ Identity

Operator
Country
US
Launch date
2025-06-13
Launch site
AFWTR
Launch vehicle
Mass (kg)
RCS (m²)

Purposes: comms

External: N2YO · Heavens-Above · Gunter

§ Orbital elements

Epoch: 2026-09-20T23:35:13.989984Z

Period
94.14 min
Inclination
70.0042°
Eccentricity
0.0002117
Mean motion
15.29588881 rev/d
Perigee alt
475.6 km
Apogee alt
478.5 km
Semi-major
6,855.2 km
B*
2.8966e-4
RAAN
259.7057°
Arg perigee
238.5944°
Mean anomaly
121.5024°
Rev number
6,999

§ Raw data

STARLINK-343891 64351U 25126H   26263.98280081  .00008210  00000+0  28966-3 0  99942 64351  70.0042 259.7057 0002117 238.5944 121.5024 15.29588881 69998

JSON: /api/v1/satellites/64351 · /tle

For live sub-satellite position, see the globe view (requires WebGL).

§ Visibility from observer

Set your observer location to see the next 7 days of passes ≥ 10°. The values pass through the URL so the page stays shareable.

No JS? Fill the form by hand. The geolocation button needs JavaScript.